Temperature
19 18 18 18 18 18 18 18 18 18 18 18 17 17 17 17 17 17 17 16 16 16 16 16 16 16 16 16 16 16 16 17 17 17 17 18 18 17 17 17 17 17 17
19 18 18 18 18 18 18 18 18 18 18 17 17 17 17 17 17 17 17 16 16 16 16 16 16 16 16 16 15 16 16 16 17 17 17 18 18 18 18 17 17 17 17
19 18 18 18 18 18 18 18 18 18 17 17 17 17 17 17 17 17 17 16 16 16 16 15 15 15 15 15 15 15 15 16 16 17 17 17 17 17 17 17 17 17 17
19 19 18 18 18 18 18 18 18 18 17 17 17 17 17 17 17 17 17 16 16 15 15 15 15 15 15 15 15 15 15 16 16 16 17 16 17 17 17 17 17 17 17
20 19 19 18 18 18 18 18 18 17 17 17 17 17 17 17 17 17 17 17 16 16 15 15 15 15 15 15 15 15 15 15 16 16 16 16 17 17 17 17 17 17 17
21 20 19 19 19 18 18 18 18 17 17 17 17 17 17 17 17 17 17 17 16 16 16 16 16 15 15 15 15 15 15 15 16 16 16 16 16 17 17 17 17 17 17
21 20 20 19 19 18 18 18 18 17 17 17 17 17 17 17 17 17 17 17 17 17 16 16 16 15 15 15 15 15 15 15 15 16 15 15 16 16 16 16 16 17 17
22 21 20 20 19 19 18 18 18 18 18 18 18 18 18 18 17 17 17 17 17 17 17 17 17 16 15 15 15 15 15 15 15 15 15 15 15 15 15 15 15 16 16
23 22 21 20 20 19 19 18 18 18 18 18 18 18 18 18 17 17 17 17 17 17 17 17 17 17 16 15 15 15 14 15 15 15 15 15 15 15 15 15 15 15 15
24 23 22 21 20 20 19 19 19 18 18 18 18 18 18 18 18 18 17 17 17 17 17 17 17 17 17 16 16 15 15 15 15 15 15 15 15 15 15 15 14 14 14
24 24 23 22 21 21 20 19 19 19 18 18 18 18 18 18 18 18 18 18 18 17 17 17 17 17 17 17 16 16 15 15 15 15 15 15 15 15 15 14 14 14 14
25 25 24 23 22 21 21 20 19 19 19 19 18 19 18 18 18 18 18 18 18 18 18 18 18 17 17 17 17 17 16 15 15 16 15 15 15 15 15 15 14 14 14
25 25 24 23 23 22 22 21 20 20 19 19 19 19 19 19 18 18 18 18 18 18 18 17 18 18 17 17 17 17 17 16 16 16 16 16 15 15 15 15 15 15 14
25 24 24 23 23 22 22 22 21 21 20 20 19 19 19 19 19 18 18 18 18 18 18 17 17 17 17 17 17 17 17 17 16 16 16 16 16 16 15 15 15 15 14
23 23 22 22 22 22 22 21 21 21 21 20 20 20 19 19 19 18 18 18 17 17 17 17 17 17 17 17 17 17 16 16 16 16 16 16 16 15 15 15 15 14 14
22 21 21 21 21 21 21 21 21 20 20 20 19 19 19 18 18 18 17 17 17 17 17 17 16 16 16 16 16 16 16 16 16 16 16 15 15 15 15 15 15 14 14
20 19 18 18 19 19 19 19 19 19 19 19 18 18 18 18 17 17 17 17 16 16 16 16 16 16 16 16 16 16 16 15 15 15 15 15 14 14 15 15 15 14 14
18 17 17 17 17 17 18 18 18 18 18 18 17 17 17 16 16 16 16 16 15 15 15 15 15 15 15 15 15 15 15 15 14 14 14 14 14 14 14 14 14 14 14
16 16 16 16 16 16 16 16 16 16 16 16 16 16 16 15 15 15 15 15 15 14 14 14 14 14 14 14 14 14 14 14 13 13 13 13 13 13 13 13 13 13 13
16 15 15 15 15 15 15 15 15 15 14 14 14 14 14 14 14 14 14 14 14 13 13 13 13 13 13 13 13 13 13 12 12 12 12 12 12 12 12 12 12 12 12
15 15 14 14 14 14 14 14 13 13 13 13 13 13 13 13 13 13 13 13 13 13 13 13 13 12 12 12 12 12 12 11 11 11 11 11 11 11 11 11 11 11 11
14 14 14 13 13 13 13 13 12 12 12 12 12 12 12 12 12 12 12 12 12 12 12 12 12 12 12 11 11 11 10 10 10 9 9 9 9 10 10 10 10 10 10
14 14 13 13 12 12 12 12 11 11 11 11 11 11 11 11 11 11 11 11 12 12 11 11 11 11 11 10 10 10 9 9 9 8 8 8 8 9 9 9 9 9 9
14 14 13 13 12 12 12 11 11 11 11 11 11 11 11 11 11 11 11 11 11 11 11 10 10 10 9 9 9 9 8 8 7 7 7 7 8 8 8 8 8 9 9
13 13 13 12 12 12 11 11 11 11 10 11 11 11 11 12 11 11 11 11 11 11 10 10 9 9 8 8 8 7 7 7 6 6 6 6 6 6 7 7 8 8 8
13 13 12 12 12 12 11 11 10 10 10 10 10 11 11 11 11 11 11 11 11 10 10 9 9 8 8 7 7 7 6 6 6 5 5 5 5 6 6 6 7 7 7
Wind_Speed
9 10 10 11 12 11 10 9 10 9 7 5 5 5 5 4 5 6 8 6 4 4 4 3 2 3 5 5 5 4 2 1 1 3 2 3 4 3 3 1 0 1 3
11 11 11 10 12 12 11 10 10 10 8 5 4 4 4 3 4 5 6 6 4 2 3 2 1 3 3 3 3 3 3 2 2 2 3 2 2 1 3 3 3 1 1
14 13 12 11 12 12 12 11 11 10 8 7 5 4 4 2 4 6 5 5 5 3 4 3 3 2 1 3 2 3 3 3 1 2 3 3 2 2 2 1 3 2 1
13 13 14 13 13 13 12 11 11 10 8 8 7 7 6 5 5 5 6 5 5 5 5 3 2 2 3 3 0 4 3 2 3 2 2 2 2 2 1 1 3 3 2
14 14 14 14 14 14 13 11 11 9 9 8 7 6 5 4 4 5 7 6 5 5 5 5 4 1 1 3 3 2 3 3 4 3 1 2 1 3 1 1 2 2 3
14 14 13 13 13 14 13 13 11 10 9 9 8 7 5 3 4 5 7 6 6 6 6 6 5 3 2 3 2 1 1 2 4 4 4 2 1 2 2 1 2 3 2
15 14 14 14 13 14 14 14 13 11 11 10 8 8 6 5 5 5 6 6 5 6 8 6 6 4 3 3 3 2 0 1 1 2 4 4 4 3 3 3 3 3 1
14 15 14 13 13 15 14 14 14 13 12 11 9 8 8 6 6 7 5 6 4 5 9 7 6 5 5 5 4 3 4 3 2 3 1 3 4 2 2 2 3 4 4
14 15 15 14 14 14 14 14 15 13 13 12 10 9 9 8 7 6 7 5 4 5 10 8 8 7 6 5 5 4 5 4 5 5 5 4 4 2 2 2 2 2 4
15 15 15 15 14 14 13 13 14 13 12 12 11 11 10 9 8 6 7 6 5 4 8 9 8 8 7 7 6 6 6 5 5 4 4 4 4 3 2 2 3 3 3
14 15 15 15 15 14 14 13 13 13 12 12 11 10 10 10 10 8 7 7 6 6 7 8 8 8 8 8 8 8 7 7 7 7 7 6 6 4 4 3 3 4 4
12 13 14 14 14 14 14 13 13 13 12 11 11 11 10 10 10 10 9 8 8 8 8 9 9 9 10 9 10 10 9 8 8 8 8 8 7 8 6 5 5 5 4
9 10 10 11 12 12 12 13 13 14 14 13 12 11 10 9 9 9 9 9 9 9 9 9 10 10 10 10 10 10 10 9 9 9 9 9 9 8 7 8 7 6 7
8 8 8 6 7 8 8 9 10 11 11 11 11 10 9 9 8 8 8 8 8 9 9 9 10 10 9 9 9 10 10 10 10 10 10 10 10 10 9 9 9 8 7
7 8 8 7 6 6 6 5 4 3 4 5 5 5 6 6 6 7 7 6 7 9 8 8 8 8 8 9 9 9 11 10 10 9 9 10 11 13 11 11 9 9 9
9 10 10 9 8 7 7 6 6 6 6 5 4 3 2 1 1 2 3 4 5 5 6 6 6 8 9 8 10 8 8 8 9 10 9 10 12 15 16 17 15 13 11
13 13 12 12 11 11 10 10 9 9 9 9 8 8 6 5 4 3 3 2 2 3 4 4 5 5 5 5 5 7 6 7 7 8 8 11 13 11 11 14 17 18 19
14 13 13 13 13 12 12 12 13 12 11 11 10 10 9 8 7 6 5 5 4 3 3 3 4 4 3 2 2 4 6 7 7 8 8 9 10 12 10 10 12 13 14
14 14 14 14 14 13 12 12 13 12 12 11 10 9 8 8 8 8 7 6 5 5 5 4 4 4 3 1 1 2 4 6 7 8 9 9 9 11 12 11 11 12 12
14 13 14 14 13 12 12 13 12 12 11 10 9 8 7 6 7 7 6 5 5 5 5 4 4 4 3 1 1 2 3 5 6 6 8 10 8 8 8 8 10 12 12
15 14 14 13 12 11 11 12 11 10 9 8 8 7 6 5 5 5 4 5 4 4 4 5 5 4 2 0 2 2 2 4 6 7 7 6 8 11 12 11 11 14 13
14 13 12 11 10 9 10 10 9 8 7 6 6 6 6 6 6 5 4 4 4 5 4 3 4 4 3 4 3 2 2 4 6 7 8 8 13 15 16 14 16 18 15
12 11 11 10 9 8 8 8 6 5 5 5 4 3 3 3 3 4 5 5 4 4 5 5 6 5 4 3 3 3 5 7 6 8 12 14 17 17 16 18 20 16 13
10 9 9 9 8 7 7 6 5 5 5 4 4 4 3 3 2 3 4 4 4 4 4 5 6 6 5 5 5 5 6 8 9 9 13 16 18 18 18 17 15 12 12
8 8 7 7 6 6 6 6 6 6 6 6 5 7 6 4 3 4 4 4 3 3 3 4 5 6 6 5 5 6 8 9 10 11 12 12 12 12 11 10 10 10 10
8 7 6 5 5 5 5 5 5 5 6 7 7 7 7 6 5 5 6 5 5 4 6 6 6 5 6 7 9 11 12 14 14 11 12 13 12 12 12 12 12 11 11
Wind_Direction
159 151 150 151 144 140 143 146 147 149 151 150 154 151 151 164 137 128 126 120 98 84 17 59 99 40 66 39 25 10 298 227 19 313 248 198 191 177 155 194 1 143 170
164 161 155 156 154 151 150 152 153 156 160 153 154 152 146 166 134 115 130 138 135 149 116 40 47 69 102 68 28 31 337 342 90 329 310 199 154 250 157 154 176 117 70
167 167 168 167 164 160 162 165 161 159 163 159 164 154 141 185 142 142 155 157 152 126 67 61 39 0 91 105 41 4 5 357 355 45 4 356 40 160 122 102 100 94 31
165 169 170 172 172 166 164 159 156 159 163 172 177 172 179 186 159 161 151 159 169 170 155 137 93 8 50 100 327 82 343 329 315 134 114 98 61 354 115 197 138 159 168
166 170 173 175 176 169 166 160 157 162 167 181 185 188 192 181 157 153 144 167 171 188 176 154 142 161 67 87 68 72 3 343 358 356 40 72 219 260 244 157 161 211 188
164 167 173 172 175 171 166 161 160 167 173 188 189 201 213 186 157 162 158 187 174 185 182 170 161 196 168 134 123 93 110 38 21 353 347 343 329 322 332 0 228 221 184
165 168 173 176 175 171 169 166 167 175 181 190 192 197 208 203 193 199 185 206 189 183 176 174 163 193 169 163 163 185 336 172 62 329 325 352 349 12 2 351 332 339 266
167 171 175 176 177 176 175 172 174 179 184 190 192 194 197 206 209 214 213 208 224 180 158 160 163 193 191 195 179 214 197 193 209 258 313 319 304 346 345 333 344 330 312
169 171 173 176 179 182 181 178 174 178 185 190 189 195 199 214 222 200 209 219 210 167 155 166 173 188 199 209 185 221 232 176 198 228 213 229 269 242 256 289 298 299 307
170 172 173 177 177 180 179 176 173 179 186 191 192 199 202 210 221 225 214 219 206 189 158 172 181 190 194 198 210 225 222 212 217 242 259 233 268 286 253 239 258 264 270
173 173 174 176 176 178 177 178 176 181 189 196 198 206 196 204 209 217 224 221 213 195 180 185 191 196 199 197 202 225 228 211 217 227 229 224 239 270 290 268 240 236 239
170 169 168 169 173 175 177 177 179 187 193 198 197 202 203 204 206 210 215 216 211 206 197 196 201 207 207 202 202 214 229 222 218 224 231 229 227 221 237 258 267 258 246
151 148 155 164 169 173 176 179 183 191 195 197 198 199 202 207 211 214 213 212 211 212 211 204 207 212 214 207 207 211 222 228 224 222 224 227 230 229 226 227 239 247 251
124 129 131 139 154 162 167 173 186 191 192 193 194 196 201 207 211 214 216 213 211 213 218 216 216 215 218 219 216 217 220 226 228 227 226 225 225 227 229 234 234 240 251
104 103 106 114 118 122 128 133 134 133 145 147 163 178 191 202 211 217 220 219 220 223 221 222 221 220 220 223 220 223 226 225 231 234 234 236 234 233 233 239 233 232 235
82 80 76 76 77 83 92 96 90 83 81 81 73 67 79 101 235 246 242 233 231 236 229 227 229 230 233 229 220 220 236 234 234 238 239 243 242 241 235 237 239 237 239
77 73 73 68 64 60 60 66 66 67 65 59 50 42 41 37 35 12 351 315 274 256 250 251 248 245 244 252 234 227 239 253 255 253 253 257 258 253 245 240 240 243 243
84 80 76 69 64 64 67 68 68 64 63 58 50 43 38 33 32 33 19 8 356 341 316 286 272 271 272 246 221 238 246 261 267 270 268 265 268 272 272 268 258 247 246
84 80 78 73 66 62 64 67 66 65 63 57 51 46 43 38 32 29 21 16 7 352 330 334 328 319 312 330 192 229 275 274 278 279 281 279 274 274 278 276 272 267 259
89 86 82 77 71 65 66 68 64 59 55 50 47 43 38 40 39 27 14 6 355 344 339 339 334 328 322 335 174 199 284 292 295 293 289 287 302 319 320 297 286 277 273
91 86 82 76 71 69 70 69 65 59 53 48 41 34 23 23 43 28 2 346 342 330 314 306 306 307 318 52 146 179 293 314 313 308 306 308 332 334 322 306 286 278 281
97 91 85 79 72 69 73 72 63 55 50 46 38 25 14 7 15 1 342 324 315 313 314 324 331 339 14 48 95 149 277 320 316 307 305 310 327 322 310 298 280 275 277
99 98 96 91 83 75 71 72 65 53 47 37 21 360 340 326 338 334 326 322 329 339 352 357 350 345 355 14 44 29 335 314 304 302 309 314 310 305 296 280 274 273 271
99 97 96 95 90 82 74 70 56 33 22 12 349 318 298 305 334 320 314 330 338 344 347 339 331 329 330 352 6 350 328 319 310 312 313 308 293 283 274 275 274 265 259
93 89 87 89 90 84 70 59 48 24 2 347 334 321 320 327 311 293 293 296 292 281 278 303 310 314 317 337 340 325 318 316 309 312 305 299 296 294 291 288 284 279 274
92 86 81 78 81 84 80 68 49 22 355 343 339 332 330 336 330 322 319 302 283 248 236 252 276 305 320 328 323 313 303 297 297 303 297 295 296 297 300 301 299 296 291
Height
1501 1504 1508 1512 1515 1519 1524 1528 1533 1536 1540 1543 1546 1549 1551 1554 1555 1555 1555 1556 1556 1557 1557 1557 1557 1558 1558 1558 1559 1559 1561 1562 1563 1564 1565 1566 1566 1567 1568 1569 1570 1571 1572
1501 1504 1507 1511 1514 1518 1522 1527 1532 1535 1538 1542 1546 1548 1551 1553 1554 1555 1555 1556 1556 1557 1558 1557 1558 1558 1558 1558 1559 1559 1560 1562 1563 1563 1564 1565 1567 1566 1568 1568 1569 1570 1571
1500 1503 1507 1510 1514 1518 1522 1526 1530 1534 1538 1541 1545 1548 1550 1552 1554 1554 1554 1555 1556 1556 1556 1557 1557 1558 1558 1558 1559 1559 1560 1562 1563 1563 1564 1564 1564 1566 1568 1568 1569 1569 1570
1499 1503 1506 1510 1514 1518 1521 1525 1529 1532 1536 1540 1544 1546 1549 1551 1553 1553 1554 1554 1555 1556 1556 1556 1556 1557 1558 1558 1559 1559 1560 1561 1562 1563 1563 1564 1564 1566 1567 1568 1568 1569 1569
1498 1501 1505 1509 1513 1517 1520 1524 1527 1531 1535 1539 1543 1545 1548 1550 1552 1553 1553 1553 1554 1555 1555 1555 1556 1556 1557 1558 1558 1558 1559 1560 1561 1562 1563 1564 1565 1565 1567 1567 1568 1568 1568
1496 1501 1505 1508 1512 1516 1519 1523 1526 1530 1534 1538 1541 1544 1547 1549 1550 1551 1552 1552 1553 1553 1554 1554 1555 1556 1557 1557 1557 1558 1559 1559 1560 1561 1562 1563 1564 1565 1565 1566 1566 1566 1567
1495 1499 1503 1507 1510 1514 1518 1521 1524 1528 1532 1536 1539 1541 1544 1546 1548 1550 1551 1551 1552 1552 1553 1554 1554 1555 1555 1556 1557 1557 1558 1559 1559 1560 1561 1562 1562 1563 1564 1564 1565 1565 1565
1493 1497 1501 1505 1508 1512 1516 1519 1523 1526 1530 1533 1537 1539 1542 1544 1546 1548 1549 1550 1551 1552 1552 1552 1553 1554 1554 1555 1556 1557 1557 1558 1558 1559 1560 1560 1561 1562 1563 1563 1564 1563 1564
1491 1495 1499 1503 1506 1510 1514 1517 1521 1524 1528 1531 1534 1537 1539 1542 1544 1546 1547 1548 1550 1550 1550 1551 1551 1552 1553 1554 1555 1555 1556 1557 1557 1558 1558 1559 1560 1560 1561 1561 1562 1563 1562
1488 1493 1497 1500 1504 1508 1512 1516 1519 1522 1525 1528 1531 1534 1536 1539 1541 1543 1545 1546 1548 1549 1548 1548 1549 1550 1550 1551 1552 1553 1554 1555 1555 1556 1556 1557 1557 1558 1559 1559 1560 1560 1560
1486 1490 1494 1498 1503 1506 1510 1514 1518 1520 1523 1526 1529 1532 1534 1536 1538 1539 1541 1543 1544 1545 1546 1546 1546 1547 1548 1549 1549 1550 1552 1552 1553 1553 1554 1554 1554 1555 1555 1556 1556 1556 1557
1483 1487 1492 1496 1500 1505 1508 1512 1515 1518 1521 1523 1526 1528 1531 1533 1534 1536 1537 1539 1540 1541 1542 1542 1543 1544 1545 1545 1546 1547 1548 1549 1549 1550 1550 1550 1551 1551 1551 1552 1552 1552 1552
1483 1486 1490 1494 1498 1503 1507 1510 1512 1515 1517 1520 1522 1524 1526 1528 1530 1532 1533 1535 1536 1537 1538 1539 1539 1540 1541 1542 1542 1543 1544 1544 1545 1545 1546 1546 1547 1547 1547 1547 1547 1547 1547
1482 1486 1489 1493 1497 1500 1504 1507 1510 1512 1514 1516 1518 1520 1522 1525 1526 1528 1529 1530 1531 1533 1534 1535 1536 1536 1537 1538 1538 1539 1539 1540 1540 1540 1541 1541 1541 1541 1542 1542 1541 1541 1541
1484 1486 1489 1493 1495 1498 1502 1505 1507 1509 1511 1513 1514 1515 1518 1521 1522 1523 1524 1526 1527 1528 1528 1530 1531 1532 1532 1532 1533 1534 1534 1534 1535 1535 1535 1535 1536 1536 1536 1536 1536 1536 1535
1486 1488 1490 1493 1495 1497 1499 1502 1504 1506 1508 1510 1511 1512 1513 1515 1518 1519 1520 1521 1523 1523 1523 1524 1526 1527 1527 1528 1528 1528 1529 1529 1529 1529 1529 1530 1530 1529 1529 1529 1529 1529 1529
1489 1490 1492 1493 1495 1497 1499 1500 1503 1504 1506 1508 1510 1512 1513 1514 1515 1516 1517 1517 1518 1519 1520 1521 1521 1522 1522 1522 1522 1523 1523 1523 1524 1524 1523 1523 1523 1523 1522 1521 1521 1521 1521
1492 1494 1495 1496 1498 1499 1500 1501 1503 1505 1507 1509 1510 1511 1512 1513 1513 1513 1513 1513 1514 1515 1516 1516 1516 1516 1516 1516 1516 1516 1517 1517 1517 1517 1517 1516 1516 1516 1515 1514 1512 1511 1511
1495 1497 1499 1500 1501 1502 1503 1504 1505 1507 1508 1510 1511 1511 1512 1512 1512 1511 1511 1511 1511 1511 1511 1512 1512 1511 1511 1511 1511 1511 1511 1510 1510 1510 1510 1509 1508 1508 1507 1505 1503 1502 1501
1499 1501 1502 1503 1504 1505 1506 1507 1508 1509 1511 1512 1512 1512 1512 1511 1510 1511 1510 1510 1510 1510 1510 1510 1509 1508 1507 1507 1506 1506 1505 1504 1504 1503 1503 1502 1501 1499 1498 1496 1493 1491 1490
1502 1503 1505 1506 1507 1509 1509 1509 1510 1511 1512 1513 1513 1513 1512 1511 1511 1511 1510 1509 1509 1508 1508 1507 1507 1506 1505 1504 1502 1501 1500 1499 1497 1496 1495 1494 1493 1490 1489 1487 1484 1482 1481
1504 1506 1508 1509 1511 1512 1512 1512 1512 1513 1514 1514 1514 1514 1513 1512 1512 1511 1510 1510 1509 1508 1507 1506 1505 1504 1503 1501 1499 1497 1496 1494 1492 1490 1488 1486 1484 1481 1479 1477 1475 1473 1471
1507 1509 1511 1512 1513 1514 1514 1515 1515 1515 1515 1515 1515 1515 1514 1514 1513 1512 1511 1510 1509 1507 1506 1505 1503 1502 1500 1498 1496 1494 1492 1489 1487 1484 1481 1478 1475 1472 1469 1467 1465 1463 1460
1509 1512 1513 1515 1516 1517 1517 1517 1517 1517 1517 1517 1516 1516 1515 1514 1513 1511 1510 1509 1508 1506 1505 1503 1501 1500 1498 1495 1493 1490 1487 1484 1481 1477 1473 1470 1466 1463 1460 1457 1455 1453 1451
1512 1514 1515 1517 1518 1518 1519 1519 1519 1519 1518 1518 1517 1516 1515 1514 1512 1511 1509 1507 1506 1505 1503 1501 1498 1496 1493 1491 1489 1486 1482 1478 1475 1470 1465 1462 1458 1455 1453 1450 1447 1445 1443
1513 1515 1516 1518 1519 1520 1520 1520 1520 1519 1519 1518 1517 1516 1514 1513 1511 1509 1507 1505 1504 1501 1499 1496 1494 1491 1489 1486 1483 1480 1476 1473 1469 1465 1460 1456 1453 1450 1447 1443 1440 1437 1434